GW1757 Weather Reports


time (UTC)temp
C
wind
direction
speed
KPH
gust
KPH
rain 1hr
cm
rain 24hr
cm
rain mn
cm
humidity
%
barometer
mb
20260505094645 28 73 4.8 12.9 0.00 0.00 0.00 84 1006.6
20260505094144 28 12 4.8 12.9 0.00 0.00 0.00 83 1006.5
20260505093643 28 12 6.4 16.1 0.00 0.00 0.00 83 1006.4
20260505093142 28 348 6.4 16.1 0.00 0.00 0.00 82 1006.4
20260505092642 28 18 4.8 14.5 0.00 0.00 0.00 82 1006.4
20260505092136 28 4 6.4 14.5 0.00 0.00 0.00 82 1006.4
20260505091630 28 359 4.8 14.5 0.00 0.00 0.00 81 1006.3
20260505091352 28 354 6.4 14.5 0.00 0.00 0.00 81 1006.2
20260505090618 28 16 6.4 16.1 0.00 0.00 0.00 81 1006.2
20260505090113 28 328 6.4 16.1 0.00 0.00 0.00 81 1006.2
20260505085606 28 18 6.4 14.5 0.00 0.00 0.00 81 1006.2
20260505085325 28 29 4.8 14.5 0.00 0.00 0.00 82 1006.3
20260505084554 28 29 6.4 16.1 0.00 0.00 0.00 82 1006.3
20260505084048 28 41 8.0 16.1 0.00 0.00 0.00 80 1006.2
20260505083543 28 322 9.7 16.1 0.00 0.00 0.00 80 1006.3
20260505083036 28 33 9.7 16.1 0.00 0.00 0.00 80 1006.2
20260505082530 29 12 8.0 17.7 0.00 0.00 0.00 79 1006.2
20260505082024 29 4 8.0 16.1 0.00 0.00 0.00 80 1006.3
20260505081518 29 349 8.0 16.1 0.00 0.00 0.00 79 1006.2
20260505081012 29 52 8.0 16.1 0.00 0.00 0.00 78 1006.2
20260505080506 29 350 6.4 14.5 0.00 0.00 0.00 78 1006.2
20260505080000 29 333 6.4 17.7 0.00 0.00 0.00 78 1006.2
20260505075454 29 77 8.0 17.7 0.00 0.00 0.00 78 1006.2
20260505075214 29 48 8.0 17.7 0.00 0.00 0.00 80 1006.2
20260505074442 29 83 9.7 19.3 0.00 0.00 0.00 79 1006.2
20260505073936 29 23 9.7 20.9 0.00 0.00 0.00 78 1006.3
20260505073432 29 82 9.7 20.9 0.00 0.00 0.00 78 1006.2
20260505072924 29 26 9.7 17.7 0.00 0.00 0.00 78 1006.4
20260505072418 28 17 11.3 17.7 0.00 0.00 0.00 79 1006.3
20260505071912 28 339 9.7 17.7 0.00 0.00 0.00 76 1006.3
20260505071406 29 63 9.7 17.7 0.00 0.00 0.00 77 1006.3
20260505070900 28 341 9.7 20.9 0.00 0.00 0.00 78 1006.4
20260505070354 28 11 9.7 20.9 0.00 0.00 0.00 78 1006.6
20260505065849 29 27 8.0 19.3 0.00 0.00 0.00 77 1006.5
20260505065342 29 340 6.4 14.5 0.00 0.00 0.00 79 1006.5
20260505064836 29 68 8.0 14.5 0.00 0.00 0.00 81 1006.6
20260505064330 29 15 8.0 14.5 0.00 0.00 0.00 79 1006.7
20260505063824 28 39 8.0 16.1 0.00 0.00 0.00 81 1006.7
20260505063319 28 42 9.7 17.7 0.00 0.00 0.00 80 1006.7
20260505062813 28 16 9.7 17.7 0.00 0.00 0.00 81 1006.7
20260505062311 28 13 8.0 17.7 0.00 0.00 0.00 80 1006.7
20260505062031 28 4 8.0 17.7 0.00 0.00 0.00 82 1006.8
20260505061531 28 48 9.7 20.9 0.00 0.00 0.00 81 1006.8
20260505061032 28 33 8.0 20.9 0.00 0.00 0.00 82 1006.8
20260505060309 28 44 8.0 17.7 0.00 0.00 0.00 82 1006.9
20260505055808 28 347 8.0 19.3 0.00 0.00 0.00 82 1007.0
20260505055309 28 50 8.0 19.3 0.00 0.00 0.00 81 1007.0
20260505054807 28 359 9.7 19.3 0.00 0.00 0.00 81 1007.0
20260505054306 28 10 9.7 19.3 0.00 0.00 0.00 81 1007.1
20260505053807 28 52 9.7 19.3 0.00 0.00 0.00 80 1007.1
20260505053305 28 68 9.7 19.3 0.00 0.00 0.00 81 1007.1
20260505052804 28 23 9.7 20.9 0.00 0.00 0.00 80 1007.1
20260505052305 28 31 9.7 20.9 0.00 0.00 0.00 80 1007.2
20260505051804 28 30 9.7 19.3 0.00 0.00 0.00 81 1007.4
20260505051305 28 359 8.0 19.3 0.00 0.00 0.00 83 1007.4
20260505050805 28 359 9.7 19.3 0.00 0.00 0.00 82 1007.5
20260505050305 28 73 11.3 19.3 0.00 0.00 0.00 82 1007.5
20260505041220 28 8 11.3 22.5 0.00 0.00 0.00 80 1008.0
20260505041205 29 28 9.7 22.5 0.00 0.00 0.00 80 1008.1
20260505040220 29 30 8.0 22.5 0.00 0.00 0.00 79 1008.0
20260505035720 29 359 8.0 19.3 0.00 0.00 0.00 80 1008.1
20260505035220 28 330 11.3 20.9 0.00 0.00 0.00 83 1008.1
20260505034722 28 4 12.9 24.1 0.00 0.00 0.00 82 1008.3
20260505034221 28 354 11.3 24.1 0.00 0.00 0.00 82 1008.2
20260505033720 28 31 9.7 22.5 0.00 0.00 0.00 81 1008.3
20260505033225 28 64 9.7 20.9 0.00 0.00 0.00 81 1008.4
20260505032720 28 23 11.3 20.9 0.00 0.00 0.00 82 1008.3
20260505032221 28 345 12.9 20.9 0.00 0.00 0.00 82 1008.4
20260505031720 28 8 14.5 24.1 0.00 0.00 0.00 83 1008.5
20260505031220 28 359 14.5 24.1 0.00 0.00 0.00 82 1008.6
20260505030721 28 334 12.9 24.1 0.00 0.00 0.00 83 1008.6
20260505030223 28 42 11.3 20.9 0.00 0.00 0.00 82 1008.7
20260505025718 28 8 12.9 19.3 0.00 0.00 0.00 82 1008.7
20260505025441 28 359 11.3 19.3 0.00 0.00 0.00 84 1008.8
20260505024718 28 16 11.3 19.3 0.00 0.00 0.00 83 1008.9
20260505024224 28 354 12.9 22.5 0.00 0.00 0.00 83 1008.8
20260505023718 28 18 12.9 22.5 0.00 0.00 0.00 83 1008.7
20260505023440 28 345 12.9 22.5 0.00 0.00 0.00 83 1008.8
20260505022719 28 24 11.3 20.9 0.00 0.00 0.00 83 1008.8
20260505022218 28 9 9.7 19.3 0.00 0.00 0.00 82 1008.8
20260505021944 28 359 9.7 19.3 0.00 0.00 0.00 83 1008.9
20260505021218 28 8 8.0 19.3 0.00 0.00 0.00 83 1008.9
20260505020718 28 350 8.0 19.3 0.00 0.00 0.00 82 1008.9
20260505020216 28 21 9.7 19.3 0.00 0.00 0.00 84 1008.9
20260505015716 27 4 11.3 19.3 0.00 0.00 0.00 84 1009.0
20260505015216 28 23 8.0 19.3 0.00 0.00 0.00 84 1009.1
20260505014716 28 341 6.4 19.3 0.00 0.00 0.00 86 1009.2
20260505014216 27 25 8.0 14.5 0.00 0.00 0.00 86 1009.1
20260505013716 27 28 8.0 16.1 0.00 0.00 0.00 84 1009.1
20260505013220 27 25 8.0 17.7 0.00 0.00 0.00 85 1009.1
20260505012715 28 45 8.0 17.7 0.00 0.00 0.00 85 1009.1
20260505012209 28 340 8.0 16.1 0.00 0.00 0.00 85 1009.2
20260505011703 28 20 6.4 16.1 0.00 0.00 0.00 83 1009.2
20260505011157 28 28 4.8 16.1 0.00 0.00 0.00 84 1009.2
20260505010651 28 54 1.6 8.0 0.00 0.00 0.00 83 1009.3
20260505010145 28 359 1.6 8.0 0.00 0.00 0.00 84 1009.3
20260505005641 28 192 1.6 8.0 0.00 0.00 0.00 83 1009.3
20260505005132 28 359 1.6 4.8 0.00 0.00 0.00 87 1009.4
20260505004626 27 160 0.0 4.8 0.00 0.00 0.00 87 1009.5
20260505004120 27 359 0.0 6.4 0.00 0.00 0.00 87 1009.5
20260505003616 27 123 1.6 6.4 0.00 0.00 0.00 86 1009.3
20260505003109 27 135 1.6 6.4 0.00 0.00 0.00 85 1009.3
20260505002823 27 112 0.0 4.8 0.00 0.00 0.00 86 1009.4
20260505002058 27 277 0.0 4.8 0.00 0.00 0.00 87 1009.5
20260505001813 27 314 0.0 4.8 0.00 0.00 0.00 87 1009.4
20260505001045 27 283 0.0 0.0 0.00 0.00 0.00 87 1009.5
20260505000539 27 264 0.0 0.0 0.00 0.00 0.00 86 1009.5
20260505000036 27 265 0.0 0.0 0.00 0.00 0.00 87 1009.4
20260504235526 27 161 0.0 0.0 0.00 0.00 0.00 88 1009.4
20260504235020 27 160 0.0 0.0 0.00 0.00 0.00 88 1009.3
20260504234515 27 161 0.0 0.0 0.00 0.00 0.00 88 1009.4
20260504234009 27 162 0.0 0.0 0.00 0.00 0.00 88 1009.4
20260504233504 27 163 0.0 0.0 0.00 0.00 0.00 88 1009.2
20260504233002 27 161 0.0 1.6 0.00 0.00 0.00 87 1009.2
20260504232711 27 162 0.0 1.6 0.00 0.00 0.00 88 1009.2
20260504231945 27 162 0.0 0.0 0.00 0.00 0.00 88 1009.1
20260504231438 27 162 0.0 0.0 0.00 0.00 0.00 88 1009.1
20260504230935 26 160 0.0 0.0 0.00 0.00 0.00 88 1009.0
20260504230909 26 162 0.0 0.0 0.00 0.10 0.00 89 1008.9
20260504225920 26 185 0.0 0.0 0.00 0.18 0.00 90 1009.0
20260504225415 25 185 0.0 0.0 0.00 0.23 0.00 90 1008.9
20260504225134 25 197 0.0 3.2 0.00 0.25 0.00 90 1008.9
20260504224403 25 199 0.0 3.2 0.00 0.33 0.00 90 1008.8
20260504223857 25 241 0.0 3.2 0.00 0.91 0.00 90 1008.8
20260504223351 25 197 0.0 4.8 0.00 1.45 0.00 90 1008.7
20260504222339 25 207 0.0 3.2 0.00 1.45 0.00 91 1008.7
20260504221832 25 226 0.0 0.0 0.00 1.47 0.00 91 1008.7
20260504221326 24 222 0.0 0.0 0.00 1.47 0.00 91 1008.6
20260504220821 24 218 0.0 0.0 0.00 1.47 0.00 91 1008.6
20260504220314 24 217 0.0 0.0 0.00 1.52 0.00 91 1008.6
20260504215809 24 359 0.0 0.0 0.00 1.55 0.00 91 1008.6
20260504214757 24 202 0.0 9.7 0.00 1.78 0.00 91 1008.5
20260504214511 24 193 0.0 8.0 0.00 2.44 0.00 91 1008.5
20260504213750 24 212 0.0 4.8 0.00 2.79 0.00 91 1008.5
20260504213731 24 208 0.0 4.8 0.00 3.38 0.00 92 1008.5
20260504212749 23 197 1.6 8.0 0.00 3.56 0.00 91 1008.4
20260504212509 24 229 1.6 11.3 0.00 3.71 0.00 91 1008.5
20260504211749 24 208 0.0 11.3 0.00 3.81 0.00 91 1008.5
20260504211248 24 241 1.6 9.7 0.00 4.39 0.00 91 1008.3
20260504210745 24 207 1.6 6.4 0.00 5.36 0.00 91 1008.3
20260504210245 24 224 1.6 6.4 0.00 5.59 0.00 91 1008.2
20260504205746 24 224 1.6 6.4 0.00 5.66 0.00 91 1008.1
20260504205243 24 215 1.6 6.4 0.00 5.69 0.00 91 1008.1
20260504204745 24 210 1.6 8.0 0.00 5.69 0.00 91 1008.1
20260504204243 24 215 1.6 8.0 0.00 5.69 0.00 91 1008.1
20260504203743 24 208 1.6 8.0 0.00 5.69 0.00 91 1008.0
20260504203243 24 223 3.2 6.4 0.00 5.69 0.00 91 1008.0
20260504202743 24 213 4.8 8.0 0.00 5.69 0.00 91 1007.9
20260504202244 25 232 6.4 8.0 0.00 5.69 0.00 90 1007.8
20260504201743 25 245 4.8 8.0 0.00 5.69 0.00 89 1007.8
20260504201238 25 237 3.2 6.4 0.00 5.69 0.00 89 1007.9
20260504200731 25 211 3.2 6.4 0.00 5.69 0.00 89 1007.8
20260504200225 25 212 1.6 6.4 0.00 5.69 0.00 89 1007.9
20260504195718 25 190 0.0 0.0 0.00 5.69 0.00 89 1007.8
20260504195217 25 189 0.0 0.0 0.00 5.69 0.00 89 1007.9
20260504194718 25 192 0.0 0.0 0.00 5.69 0.00 90 1008.0
20260504194215 25 190 0.0 0.0 0.00 5.69 0.00 90 1007.9
20260504193717 25 190 0.0 0.0 0.00 5.69 0.00 90 1007.9
20260504193215 25 191 0.0 3.2 0.00 5.69 0.00 90 1008.0
20260504192935 25 187 1.6 6.4 0.00 5.69 0.00 90 1008.0
20260504192435 25 212 1.6 6.4 0.00 5.69 0.00 90 1008.1
20260504191715 25 359 3.2 6.4 0.00 5.69 0.00 90 1008.1
20260504191216 25 216 3.2 6.4 0.00 5.69 0.00 89 1008.2
20260504190715 25 209 1.6 6.4 0.00 5.69 0.00 89 1008.2
20260504190215 25 221 0.0 6.4 0.00 5.69 0.00 89 1008.3
20260504185943 25 229 0.0 0.0 0.00 5.69 0.00 90 1008.2
20260504185215 25 226 0.0 4.8 0.00 5.69 0.00 90 1008.2
20260504184720 25 359 1.6 4.8 0.00 5.69 0.00 90 1008.2
20260504184215 25 226 3.2 6.4 0.00 5.69 0.00 90 1008.3
20260504183718 25 359 3.2 8.0 0.00 5.69 0.00 90 1008.4
20260504183215 25 359 3.2 8.0 0.00 5.69 0.00 90 1008.4
20260504182714 25 216 3.2 8.0 0.00 5.69 0.00 90 1008.4
20260504182441 25 222 3.2 8.0 0.00 5.69 0.00 89 1008.4
20260504181716 25 220 1.6 8.0 0.00 5.69 0.00 88 1008.4
20260504181215 26 186 0.0 3.2 0.00 5.69 0.00 89 1008.3
20260504180715 26 186 0.0 3.2 0.00 5.69 0.00 89 1008.5
20260504180710 26 186 0.0 1.6 0.00 5.69 0.00 89 1008.5
20260504175715 26 184 0.0 3.2 0.00 5.69 0.00 89 1008.5
20260504175215 26 185 0.0 3.2 0.00 5.69 0.00 89 1008.5
20260504174715 26 186 0.0 3.2 0.00 5.69 0.00 89 1008.6
20260504174214 26 204 0.0 0.0 0.00 5.69 0.00 89 1008.7
20260504173715 26 167 1.6 6.4 0.00 5.69 0.00 89 1008.8
20260504173216 26 148 3.2 6.4 0.00 5.69 0.00 89 1008.7
20260504172931 26 166 4.8 6.4 0.00 5.69 0.00 89 1008.7
20260504172213 26 136 3.2 8.0 0.00 5.69 0.00 89 1008.8
20260504171713 26 145 1.6 8.0 0.00 5.69 0.00 89 1009.0
20260504171430 26 178 3.2 6.4 0.00 5.69 0.00 89 1009.1
20260504170719 25 204 3.2 6.4 0.00 5.69 0.00 89 1009.1
20260504170213 26 183 3.2 6.4 0.00 5.69 0.00 88 1009.2
20260504151001 26 195 1.6 6.4 0.00 5.69 5.69 85 1009.9
20260504150455 26 166 1.6 6.4 0.00 5.69 5.69 85 1009.9
20260504141113 25 197 3.2 6.4 0.00 5.79 5.69 86 1009.8
20260504140343 25 200 3.2 11.3 0.00 5.79 5.69 86 1009.8
20260504130739 26 247 1.6 6.4 0.00 5.94 5.69 88 1009.3
20260504130452 26 226 1.6 4.8 0.00 5.94 5.69 88 1009.4
20260504120119 26 212 3.2 6.4 0.00 5.94 5.69 87 1009.1
20260504110540 26 9 1.6 4.8 0.00 5.97 5.69 87 1008.8
20260504100535 27 25 3.2 4.8 0.00 5.97 5.69 86 1008.1